TimeHST,TemperatureF,Dew PointF,Humidity,Sea Level PressureIn,VisibilityMPH,Wind Direction,Wind SpeedMPH,Gust SpeedMPH,PrecipitationIn,Events,Conditions,WindDirDegrees,DateUTC
12:56 AM,73.0,64.0,73,30.12,10.0,North,3.5,-,N/A,,Mostly Cloudy,350,2013-04-19 10:56:00
1:56 AM,70.0,64.0,81,30.10,10.0,Calm,Calm,-,N/A,,Partly Cloudy,0,2013-04-19 11:56:00
2:56 AM,70.0,62.1,76,30.09,10.0,Calm,Calm,-,N/A,,Clear,0,2013-04-19 12:56:00
3:56 AM,68.0,62.1,81,30.07,10.0,Calm,Calm,-,N/A,,Clear,0,2013-04-19 13:56:00
4:56 AM,68.0,62.1,81,30.07,10.0,East,3.5,-,N/A,,Clear,100,2013-04-19 14:56:00
5:56 AM,66.9,59.0,76,30.08,10.0,East,3.5,-,N/A,,Clear,80,2013-04-19 15:56:00
6:56 AM,68.0,60.1,76,30.10,10.0,ENE,3.5,-,N/A,,Clear,60,2013-04-19 16:56:00
7:56 AM,75.0,64.0,69,30.12,10.0,North,3.5,-,N/A,,Clear,350,2013-04-19 17:56:00
8:56 AM,75.9,66.9,74,30.13,10.0,NNW,4.6,-,N/A,,Clear,330,2013-04-19 18:56:00
9:56 AM,78.1,66.9,68,30.13,10.0,North,10.4,-,N/A,,Clear,350,2013-04-19 19:56:00
10:56 AM,79.0,64.9,62,30.13,10.0,NW,8.1,-,N/A,,Scattered Clouds,310,2013-04-19 20:56:00
11:56 AM,78.1,64.9,64,30.11,10.0,WNW,8.1,-,N/A,,Clear,290,2013-04-19 21:56:00
12:56 PM,79.0,64.9,62,30.08,10.0,WNW,8.1,-,N/A,,Scattered Clouds,300,2013-04-19 22:56:00
1:56 PM,79.0,64.9,62,30.06,10.0,West,9.2,-,N/A,,Overcast,270,2013-04-19 23:56:00
2:56 PM,80.1,66.0,62,30.04,10.0,WNW,10.4,-,N/A,,Mostly Cloudy,300,2013-04-20 00:56:00
3:28 PM,77.0,66.2,69,30.03,6.0,West,6.9,-,0.00,Rain,Light Rain,270,2013-04-20 01:28:00
3:39 PM,78.8,66.2,65,30.03,10.0,WNW,5.8,-,0.00,,Overcast,290,2013-04-20 01:39:00
3:56 PM,78.1,64.9,64,30.03,10.0,WNW,4.6,-,0.00,,Mostly Cloudy,290,2013-04-20 01:56:00
4:56 PM,77.0,66.0,69,30.04,10.0,WSW,6.9,-,N/A,,Mostly Cloudy,240,2013-04-20 02:56:00
5:56 PM,77.0,66.0,69,30.05,10.0,NNW,8.1,-,N/A,,Partly Cloudy,340,2013-04-20 03:56:00
6:56 PM,75.9,66.0,71,30.06,10.0,NW,3.5,-,N/A,,Partly Cloudy,320,2013-04-20 04:56:00
7:56 PM,75.0,66.0,73,30.06,10.0,Calm,Calm,-,N/A,,Partly Cloudy,0,2013-04-20 05:56:00
8:56 PM,73.9,66.0,76,30.09,10.0,SE,3.5,-,N/A,,Clear,140,2013-04-20 06:56:00
9:16 PM,71.6,66.2,83,30.09,10.0,Calm,Calm,-,N/A,,Mostly Cloudy,0,2013-04-20 07:16:00
9:43 PM,71.6,66.2,83,30.09,10.0,SE,3.5,-,N/A,,Scattered Clouds,130,2013-04-20 07:43:00
9:56 PM,71.1,66.0,84,30.10,10.0,Calm,Calm,-,N/A,,Clear,0,2013-04-20 07:56:00
10:56 PM,71.1,64.9,81,30.10,10.0,SE,5.8,-,N/A,,Scattered Clouds,140,2013-04-20 08:56:00
11:56 PM,70.0,64.9,84,30.09,10.0,Calm,Calm,-,N/A,,Partly Cloudy,0,2013-04-20 09:56:00